| time (UTC) | temp F | wind direction | speed knots | gust knots | rain 1hr in | rain 24hr in | rain mn in | humidity % | barometer mb |
| 20260505075330 | 58 | 201 | 8.7 | 12.2 | 0.00 | 0.00 | 0.00 | 86 | 1009.7 |
| 20260505074823 | 58 | 209 | 8.7 | 13.9 | 0.00 | 0.00 | 0.00 | 86 | 1009.7 |
| 20260505074325 | 58 | 182 | 8.7 | 13.9 | 0.00 | 0.00 | 0.00 | 86 | 1009.7 |
| 20260505073819 | 58 | 170 | 9.6 | 13.9 | 0.00 | 0.00 | 0.00 | 86 | 1009.7 |
| 20260505073320 | 58 | 188 | 9.6 | 14.8 | 0.00 | 0.00 | 0.00 | 86 | 1009.7 |
| 20260505072749 | 58 | 213 | 9.6 | 13.9 | 0.00 | 0.00 | 0.00 | 85 | 1009.7 |
| 20260505072502 | 58 | 189 | 9.6 | 14.8 | 0.00 | 0.00 | 0.00 | 85 | 1009.7 |
| 20260505071733 | 59 | 218 | 9.6 | 14.8 | 0.00 | 0.00 | 0.00 | 85 | 1009.7 |
| 20260505071452 | 58 | 205 | 9.6 | 13.9 | 0.00 | 0.00 | 0.00 | 85 | 1009.7 |
| 20260505070924 | 58 | 184 | 8.7 | 13.9 | 0.00 | 0.00 | 0.00 | 85 | 1009.7 |
| 20260505070146 | 58 | 214 | 8.7 | 13.0 | 0.00 | 0.00 | 0.00 | 85 | 1009.7 |
| 20260505065625 | 58 | 225 | 8.7 | 13.0 | 0.00 | 0.00 | 0.00 | 86 | 1009.7 |
| 20260505065343 | 58 | 196 | 8.7 | 13.9 | 0.00 | 0.00 | 0.00 | 86 | 1009.6 |
| 20260505065057 | 58 | 177 | 8.7 | 13.9 | 0.00 | 0.00 | 0.00 | 86 | 1009.6 |
| 20260505064111 | 58 | 192 | 8.7 | 13.9 | 0.00 | 0.00 | 0.00 | 86 | 1009.6 |
| 20260505064030 | 58 | 215 | 9.6 | 13.9 | 0.00 | 0.00 | 0.00 | 87 | 1009.7 |
| 20260505063020 | 58 | 192 | 9.6 | 13.9 | 0.00 | 0.00 | 0.00 | 87 | 1009.7 |
| 20260505062519 | 57 | 186 | 8.7 | 14.8 | 0.00 | 0.00 | 0.00 | 87 | 1009.7 |
| 20260505062012 | 57 | 193 | 8.7 | 14.8 | 0.00 | 0.00 | 0.00 | 86 | 1009.8 |
| 20260505061508 | 58 | 199 | 11.3 | 17.4 | 0.00 | 0.00 | 0.00 | 86 | 1009.8 |
| 20260505061232 | 58 | 184 | 13.0 | 20.0 | 0.00 | 0.00 | 0.00 | 86 | 1009.8 |
| 20260505060504 | 58 | 192 | 13.9 | 20.0 | 0.00 | 0.00 | 0.00 | 86 | 1010.0 |
| 20260505055938 | 58 | 183 | 13.9 | 20.0 | 0.00 | 0.00 | 0.00 | 86 | 1010.0 |
| 20260505055410 | 58 | 165 | 13.9 | 21.7 | 0.00 | 0.00 | 0.00 | 86 | 1010.1 |
| 20260505055129 | 58 | 178 | 13.9 | 21.7 | 0.00 | 0.00 | 0.00 | 86 | 1010.1 |
| 20260505054602 | 58 | 196 | 14.8 | 24.3 | 0.00 | 0.00 | 0.00 | 86 | 1010.1 |
| 20260505053845 | 58 | 168 | 13.9 | 24.3 | 0.00 | 0.00 | 0.00 | 86 | 1010.0 |
| 20260505053345 | 58 | 200 | 12.2 | 20.9 | 0.00 | 0.00 | 0.00 | 86 | 1010.0 |
| 20260505053107 | 58 | 147 | 12.2 | 20.9 | 0.00 | 0.00 | 0.00 | 86 | 1010.0 |
| 20260505052342 | 58 | 191 | 12.2 | 18.2 | 0.00 | 0.00 | 0.00 | 86 | 1010.2 |
| 20260505051842 | 58 | 201 | 13.0 | 20.9 | 0.00 | 0.00 | 0.00 | 86 | 1010.2 |
| 20260505051339 | 58 | 203 | 11.3 | 20.9 | 0.00 | 0.00 | 0.00 | 87 | 1010.2 |
| 20260505050837 | 58 | 195 | 10.4 | 16.5 | 0.00 | 0.00 | 0.00 | 87 | 1010.4 |
| 20260505050339 | 57 | 200 | 11.3 | 16.5 | 0.00 | 0.00 | 0.00 | 87 | 1010.4 |
| 20260505041220 | 58 | 199 | 9.6 | 17.4 | 0.00 | 0.00 | 0.00 | 87 | 1010.6 |
| 20260505040719 | 58 | 201 | 10.4 | 16.5 | 0.00 | 0.00 | 0.00 | 86 | 1010.7 |
| 20260505040220 | 58 | 201 | 11.3 | 19.1 | 0.00 | 0.00 | 0.00 | 86 | 1010.7 |
| 20260505035708 | 58 | 175 | 11.3 | 19.1 | 0.00 | 0.00 | 0.00 | 86 | 1010.7 |
| 20260505035207 | 58 | 186 | 10.4 | 19.1 | 0.00 | 0.00 | 0.00 | 87 | 1010.7 |
| 20260505034647 | 58 | 177 | 10.4 | 17.4 | 0.00 | 0.00 | 0.00 | 86 | 1010.7 |
| 20260505034148 | 58 | 190 | 9.6 | 16.5 | 0.00 | 0.00 | 0.00 | 86 | 1010.7 |
| 20260505034136 | 58 | 144 | 10.4 | 20.9 | 0.00 | 0.00 | 0.00 | 86 | 1010.7 |
| 20260505033137 | 58 | 191 | 12.2 | 20.9 | 0.00 | 0.00 | 0.00 | 86 | 1010.7 |
| 20260505032638 | 58 | 208 | 13.0 | 20.9 | 0.00 | 0.00 | 0.00 | 85 | 1010.7 |
| 20260505032114 | 58 | 178 | 13.0 | 20.9 | 0.00 | 0.00 | 0.00 | 85 | 1010.7 |
| 20260505031610 | 59 | 209 | 12.2 | 20.0 | 0.00 | 0.00 | 0.00 | 85 | 1010.7 |
| 20260505031111 | 58 | 206 | 12.2 | 19.1 | 0.00 | 0.00 | 0.00 | 85 | 1010.7 |
| 20260505030547 | 59 | 123 | 12.2 | 19.1 | 0.00 | 0.00 | 0.00 | 85 | 1010.7 |
| 20260505030048 | 59 | 199 | 11.3 | 19.1 | 0.00 | 0.00 | 0.00 | 85 | 1010.7 |
| 20260505025539 | 59 | 175 | 11.3 | 18.2 | 0.00 | 0.00 | 0.00 | 84 | 1010.7 |
| 20260505025309 | 59 | 155 | 11.3 | 21.7 | 0.00 | 0.00 | 0.00 | 84 | 1010.7 |
| 20260505024752 | 59 | 221 | 10.4 | 21.7 | 0.00 | 0.00 | 0.00 | 84 | 1010.7 |
| 20260505024033 | 59 | 188 | 9.6 | 18.2 | 0.00 | 0.00 | 0.00 | 83 | 1010.7 |
| 20260505023530 | 59 | 199 | 9.6 | 18.2 | 0.00 | 0.00 | 0.00 | 82 | 1010.8 |
| 20260505023030 | 60 | 207 | 10.4 | 19.1 | 0.00 | 0.00 | 0.00 | 81 | 1010.8 |
| 20260505022521 | 60 | 139 | 11.3 | 19.1 | 0.00 | 0.00 | 0.00 | 79 | 1010.8 |
| 20260505022017 | 61 | 195 | 13.0 | 20.9 | 0.00 | 0.00 | 0.00 | 78 | 1010.9 |
| 20260505021520 | 61 | 205 | 13.0 | 23.5 | 0.00 | 0.00 | 0.00 | 78 | 1010.9 |
| 20260505021018 | 61 | 194 | 12.2 | 23.5 | 0.00 | 0.00 | 0.00 | 78 | 1010.9 |
| 20260505020741 | 61 | 198 | 11.3 | 18.2 | 0.00 | 0.00 | 0.00 | 78 | 1010.9 |
| 20260505015950 | 61 | 161 | 12.2 | 18.2 | 0.00 | 0.00 | 0.00 | 78 | 1010.9 |
| 20260505015421 | 61 | 180 | 12.2 | 20.0 | 0.00 | 0.00 | 0.00 | 78 | 1010.8 |
| 20260505014920 | 61 | 196 | 12.2 | 20.0 | 0.00 | 0.00 | 0.00 | 78 | 1010.8 |
| 20260505014644 | 61 | 191 | 11.3 | 15.6 | 0.00 | 0.00 | 0.00 | 78 | 1010.8 |
| 20260505013919 | 61 | 207 | 11.3 | 14.8 | 0.00 | 0.00 | 0.00 | 78 | 1010.8 |
| 20260505013420 | 61 | 183 | 11.3 | 15.6 | 0.00 | 0.00 | 0.00 | 78 | 1010.8 |
| 20260505012902 | 61 | 198 | 12.2 | 15.6 | 0.00 | 0.00 | 0.00 | 77 | 1010.8 |
| 20260505012358 | 61 | 177 | 11.3 | 18.2 | 0.00 | 0.00 | 0.00 | 77 | 1010.7 |
| 20260505011902 | 61 | 204 | 10.4 | 18.2 | 0.00 | 0.00 | 0.00 | 78 | 1010.7 |
| 20260505011558 | 60 | 205 | 9.6 | 17.4 | 0.00 | 0.00 | 0.00 | 79 | 1010.7 |
| 20260505010835 | 60 | 186 | 11.3 | 17.4 | 0.00 | 0.00 | 0.00 | 79 | 1010.6 |
| 20260505010310 | 60 | 159 | 12.2 | 17.4 | 0.00 | 0.00 | 0.00 | 79 | 1010.6 |
| 20260505005804 | 60 | 205 | 13.0 | 18.2 | 0.00 | 0.00 | 0.00 | 79 | 1010.6 |
| 20260505005503 | 60 | 185 | 12.2 | 19.1 | 0.00 | 0.00 | 0.00 | 80 | 1010.4 |
| 20260505004732 | 60 | 190 | 11.3 | 18.2 | 0.00 | 0.00 | 0.00 | 80 | 1010.4 |
| 20260505004230 | 60 | 189 | 12.2 | 18.2 | 0.00 | 0.00 | 0.00 | 80 | 1010.4 |
| 20260505003709 | 60 | 178 | 11.3 | 17.4 | 0.00 | 0.00 | 0.00 | 82 | 1010.2 |
| 20260505003208 | 59 | 190 | 10.4 | 18.2 | 0.00 | 0.00 | 0.00 | 82 | 1010.2 |
| 20260505002704 | 59 | 172 | 11.3 | 18.2 | 0.00 | 0.00 | 0.00 | 82 | 1010.2 |
| 20260505002426 | 59 | 170 | 11.3 | 18.2 | 0.00 | 0.00 | 0.00 | 83 | 1010.2 |
| 20260505001634 | 59 | 195 | 11.3 | 17.4 | 0.00 | 0.00 | 0.00 | 83 | 1010.2 |
| 20260505001131 | 59 | 184 | 10.4 | 17.4 | 0.00 | 0.00 | 0.00 | 83 | 1010.2 |
| 20260505000607 | 58 | 192 | 11.3 | 17.4 | 0.00 | 0.00 | 0.00 | 83 | 1010.0 |
| 20260505000314 | 58 | 160 | 12.2 | 17.4 | 0.00 | 0.00 | 0.00 | 83 | 1010.0 |
| 20260504235814 | 58 | 197 | 12.2 | 18.2 | 0.00 | 0.00 | 0.00 | 82 | 1010.0 |
| 20260504235031 | 58 | 178 | 13.0 | 18.2 | 0.00 | 0.00 | 0.00 | 82 | 1009.8 |
| 20260504234530 | 58 | 176 | 13.0 | 20.0 | 0.00 | 0.00 | 0.00 | 82 | 1009.8 |
| 20260504234252 | 58 | 190 | 13.0 | 20.0 | 0.00 | 0.00 | 0.00 | 82 | 1009.8 |
| 20260504233528 | 59 | 190 | 13.0 | 19.1 | 0.00 | 0.00 | 0.00 | 81 | 1009.7 |
| 20260504232957 | 59 | 173 | 13.0 | 21.7 | 0.00 | 0.00 | 0.00 | 81 | 1009.7 |
| 20260504232707 | 59 | 182 | 13.0 | 21.7 | 0.00 | 0.00 | 0.00 | 81 | 1009.7 |
| 20260504231950 | 59 | 183 | 13.0 | 20.9 | 0.00 | 0.00 | 0.00 | 81 | 1009.7 |
| 20260504231421 | 60 | 198 | 12.2 | 20.9 | 0.00 | 0.00 | 0.00 | 81 | 1009.7 |
| 20260504230913 | 60 | 188 | 12.2 | 22.6 | 0.00 | 0.00 | 0.00 | 80 | 1009.7 |
| 20260504230412 | 60 | 203 | 13.0 | 24.3 | 0.00 | 0.00 | 0.00 | 81 | 1009.7 |
| 20260504225851 | 60 | 207 | 13.9 | 24.3 | 0.00 | 0.00 | 0.00 | 80 | 1009.7 |
| 20260504225341 | 60 | 188 | 13.0 | 21.7 | 0.00 | 0.00 | 0.00 | 79 | 1009.6 |
| 20260504224839 | 60 | 210 | 13.0 | 20.0 | 0.00 | 0.00 | 0.00 | 78 | 1009.6 |
| 20260504224319 | 61 | 173 | 14.8 | 22.6 | 0.00 | 0.00 | 0.00 | 78 | 1009.6 |
| 20260504223804 | 61 | 174 | 14.8 | 22.6 | 0.00 | 0.00 | 0.00 | 78 | 1009.7 |
| 20260504223303 | 61 | 167 | 13.9 | 22.6 | 0.00 | 0.00 | 0.00 | 77 | 1009.7 |
| 20260504222750 | 61 | 199 | 14.8 | 20.9 | 0.00 | 0.00 | 0.00 | 76 | 1009.7 |
| 20260504222459 | 61 | 202 | 15.6 | 25.2 | 0.00 | 0.00 | 0.00 | 75 | 1009.7 |
| 20260504221706 | 62 | 180 | 15.6 | 25.2 | 0.00 | 0.00 | 0.00 | 74 | 1009.7 |
| 20260504221205 | 62 | 184 | 14.8 | 23.5 | 0.00 | 0.00 | 0.00 | 74 | 1009.7 |
| 20260504220705 | 62 | 187 | 13.9 | 23.5 | 0.00 | 0.00 | 0.00 | 74 | 1009.7 |
| 20260504220404 | 61 | 203 | 15.6 | 24.3 | 0.00 | 0.00 | 0.00 | 76 | 1009.7 |
| 20260504215640 | 61 | 211 | 14.8 | 24.3 | 0.00 | 0.00 | 0.00 | 76 | 1009.7 |
| 20260504215113 | 62 | 197 | 12.2 | 20.0 | 0.00 | 0.00 | 0.00 | 76 | 1009.7 |
| 20260504214614 | 62 | 207 | 12.2 | 20.0 | 0.00 | 0.00 | 0.00 | 76 | 1009.7 |
| 20260504214113 | 61 | 199 | 13.9 | 22.6 | 0.00 | 0.00 | 0.00 | 77 | 1009.7 |
| 20260504213612 | 61 | 195 | 13.9 | 22.6 | 0.00 | 0.00 | 0.00 | 76 | 1009.7 |
| 20260504213111 | 62 | 173 | 13.9 | 21.7 | 0.00 | 0.00 | 0.00 | 75 | 1009.7 |
| 20260504212611 | 62 | 209 | 13.9 | 22.6 | 0.00 | 0.00 | 0.00 | 74 | 1009.7 |
| 20260504212102 | 62 | 204 | 14.8 | 24.3 | 0.00 | 0.00 | 0.00 | 75 | 1009.7 |
| 20260504211605 | 62 | 224 | 13.9 | 24.3 | 0.00 | 0.00 | 0.00 | 76 | 1009.7 |
| 20260504211036 | 61 | 182 | 14.8 | 21.7 | 0.00 | 0.00 | 0.00 | 75 | 1009.7 |
| 20260504210537 | 61 | 183 | 14.8 | 25.2 | 0.00 | 0.00 | 0.00 | 75 | 1009.7 |
| 20260504210038 | 61 | 180 | 16.5 | 25.2 | 0.00 | 0.00 | 0.00 | 76 | 1009.7 |
| 20260504205529 | 61 | 192 | 16.5 | 24.3 | 0.00 | 0.00 | 0.00 | 76 | 1009.7 |
| 20260504205029 | 61 | 219 | 15.6 | 26.1 | 0.00 | 0.00 | 0.00 | 76 | 1009.6 |
| 20260504204524 | 61 | 180 | 16.5 | 26.1 | 0.00 | 0.00 | 0.00 | 75 | 1009.6 |
| 20260504203958 | 61 | 181 | 15.6 | 26.1 | 0.00 | 0.00 | 0.00 | 75 | 1009.7 |
| 20260504203451 | 61 | 153 | 14.8 | 24.3 | 0.00 | 0.00 | 0.00 | 75 | 1009.7 |
| 20260504202950 | 61 | 190 | 15.6 | 24.3 | 0.00 | 0.00 | 0.00 | 74 | 1009.7 |
| 20260504202440 | 61 | 169 | 13.9 | 23.5 | 0.00 | 0.00 | 0.00 | 74 | 1009.7 |
| 20260504201937 | 62 | 199 | 13.0 | 23.5 | 0.00 | 0.00 | 0.00 | 74 | 1009.7 |
| 20260504201435 | 62 | 188 | 13.0 | 23.5 | 0.00 | 0.00 | 0.00 | 73 | 1009.7 |
| 20260504200907 | 62 | 172 | 14.8 | 24.3 | 0.00 | 0.00 | 0.00 | 73 | 1009.7 |
| 20260504200637 | 62 | 178 | 16.5 | 26.9 | 0.00 | 0.00 | 0.00 | 71 | 1009.7 |
| 20260504195903 | 62 | 165 | 17.4 | 26.9 | 0.00 | 0.00 | 0.00 | 69 | 1009.7 |
| 20260504195401 | 62 | 203 | 15.6 | 25.2 | 0.00 | 0.00 | 0.00 | 69 | 1009.9 |
| 20260504195059 | 61 | 165 | 13.9 | 20.9 | 0.00 | 0.00 | 0.00 | 72 | 1009.9 |
| 20260504194308 | 60 | 161 | 13.9 | 20.0 | 0.00 | 0.00 | 0.00 | 74 | 1009.9 |
| 20260504193757 | 61 | 181 | 13.0 | 19.1 | 0.00 | 0.00 | 0.00 | 71 | 1010.1 |
| 20260504193255 | 62 | 160 | 13.0 | 26.1 | 0.00 | 0.00 | 0.00 | 70 | 1010.1 |
| 20260504192957 | 63 | 136 | 12.2 | 26.1 | 0.00 | 0.00 | 0.00 | 67 | 1010.1 |
| 20260504192211 | 62 | 197 | 12.2 | 21.7 | 0.00 | 0.00 | 0.00 | 69 | 1010.2 |
| 20260504191709 | 64 | 188 | 13.0 | 26.1 | 0.00 | 0.00 | 0.00 | 66 | 1010.2 |
| 20260504191416 | 64 | 191 | 13.0 | 26.1 | 0.00 | 0.00 | 0.00 | 64 | 1010.2 |
| 20260504190657 | 63 | 153 | 13.0 | 20.9 | 0.00 | 0.00 | 0.00 | 67 | 1010.5 |
| 20260504190129 | 64 | 188 | 13.9 | 22.6 | 0.00 | 0.00 | 0.00 | 65 | 1010.5 |
| 20260504185627 | 64 | 176 | 13.9 | 22.6 | 0.00 | 0.00 | 0.00 | 65 | 1010.5 |
| 20260504185128 | 64 | 190 | 14.8 | 25.2 | 0.00 | 0.00 | 0.00 | 66 | 1010.5 |
| 20260504184615 | 63 | 185 | 15.6 | 26.1 | 0.00 | 0.00 | 0.00 | 67 | 1010.5 |
| 20260504184116 | 64 | 176 | 15.6 | 26.1 | 0.00 | 0.00 | 0.00 | 66 | 1010.5 |
| 20260504183615 | 64 | 176 | 13.9 | 23.5 | 0.00 | 0.00 | 0.00 | 67 | 1010.7 |
| 20260504183324 | 64 | 163 | 13.9 | 22.6 | 0.00 | 0.00 | 0.00 | 68 | 1010.7 |
| 20260504182549 | 63 | 178 | 13.9 | 25.2 | 0.00 | 0.00 | 0.00 | 69 | 1010.7 |
| 20260504182051 | 64 | 170 | 13.9 | 24.3 | 0.00 | 0.00 | 0.00 | 67 | 1010.8 |
| 20260504181542 | 64 | 207 | 14.8 | 21.7 | 0.00 | 0.00 | 0.00 | 66 | 1010.8 |
| 20260504181044 | 64 | 178 | 14.8 | 23.5 | 0.00 | 0.00 | 0.00 | 65 | 1010.8 |
| 20260504180527 | 64 | 185 | 14.8 | 24.3 | 0.00 | 0.00 | 0.00 | 65 | 1011.1 |
| 20260504180030 | 64 | 186 | 14.8 | 24.3 | 0.00 | 0.00 | 0.00 | 66 | 1011.1 |
| 20260504175510 | 63 | 199 | 13.0 | 26.9 | 0.00 | 0.00 | 0.00 | 67 | 1011.2 |
| 20260504175005 | 63 | 146 | 13.0 | 26.9 | 0.00 | 0.00 | 0.00 | 66 | 1011.2 |
| 20260504174507 | 64 | 175 | 14.8 | 24.3 | 0.00 | 0.00 | 0.00 | 66 | 1011.2 |
| 20260504173950 | 64 | 182 | 15.6 | 24.3 | 0.00 | 0.00 | 0.00 | 67 | 1011.2 |
| 20260504173423 | 63 | 170 | 13.9 | 23.5 | 0.00 | 0.00 | 0.00 | 68 | 1011.2 |
| 20260504172921 | 63 | 162 | 11.3 | 17.4 | 0.00 | 0.00 | 0.00 | 68 | 1011.2 |
| 20260504172423 | 63 | 173 | 10.4 | 16.5 | 0.00 | 0.00 | 0.00 | 68 | 1011.7 |
| 20260504171911 | 64 | 176 | 11.3 | 20.0 | 0.00 | 0.00 | 0.00 | 65 | 1011.7 |
| 20260504171339 | 64 | 199 | 13.0 | 21.7 | 0.00 | 0.00 | 0.00 | 64 | 1011.7 |
| 20260504170837 | 64 | 190 | 13.9 | 23.5 | 0.00 | 0.00 | 0.00 | 66 | 1011.8 |
| 20260504170338 | 64 | 195 | 13.9 | 26.1 | 0.00 | 0.00 | 0.00 | 64 | 1011.8 |
| 20260504150714 | 63 | 171 | 11.3 | 21.7 | 0.00 | 0.00 | 0.00 | 63 | 1012.8 |
| 20260504141254 | 62 | 182 | 11.3 | 21.7 | 0.00 | 0.00 | 0.00 | 62 | 1013.0 |
| 20260504140754 | 62 | 201 | 10.4 | 17.4 | 0.00 | 0.00 | 0.00 | 61 | 1013.3 |
| 20260504140224 | 62 | 175 | 10.4 | 18.2 | 0.00 | 0.00 | 0.00 | 61 | 1013.3 |
| 20260504130611 | 61 | 204 | 10.4 | 14.8 | 0.00 | 0.00 | 0.00 | 58 | 1013.8 |
| 20260504130319 | 60 | 210 | 11.3 | 15.6 | 0.00 | 0.00 | 0.00 | 59 | 1013.8 |
| 20260504110240 | 52 | 204 | 11.3 | 17.4 | 0.00 | 0.00 | 0.00 | 74 | 1014.4 |
| 20260504100515 | 52 | 232 | 13.0 | 18.2 | 0.00 | 0.00 | 0.00 | 70 | 1014.1 |
| 20260504081719 | 53 | 242 | 11.3 | 20.0 | 0.00 | 0.00 | 0.00 | 63 | 1013.9 |
| 20260504081220 | 53 | 219 | 11.3 | 17.4 | 0.00 | 0.00 | 0.00 | 61 | 1013.9 |
| 20260504080705 | 54 | 219 | 12.2 | 17.4 | 0.00 | 0.00 | 0.00 | 60 | 1013.8 |
| 20260504080428 | 54 | 233 | 12.2 | 16.5 | 0.00 | 0.00 | 0.00 | 59 | 1013.8 |